STARLINK-34714, 64939

Orbit data source: Space-Track

STARLINK-34714, 64939 is a payload satellite owned by SpaceX/Seattle (US) in SSO that was launched on Sat, 26 Jul 2025 UTC via an FALCON 9 launch vehicle from the Air Force Western Test Range (AFWTR). Payload-class satellites include a variety of spacecraft equipped with specific instruments for various scientific and technological missions. These include communications satellites like Starlink; space stations such as the ISS; scientific satellites like the Hubble; Earth observation satellites from companies like Planet Labs, Umbra, and HawkEye 360; GPS; miniature CubeSats for education and research; and military/defense satellites.

Loading next visibility...
Identifier
64939, 2025-158H
Orbit
SSO
Country
Flag of USUS
Related business
Manufacturer
SpaceX/Seattle
Mission
Operational Commercial Communications
Bus & Motor
STARLINK V2MO, Unknown motor
Mass
575 kg wet, ~530 kg dry
Launch date (UTC)
2025-07-26 (11 months ago)
Launch vehicle
FALCON 9
Launch site
Air Force Western Test Range (AFWTR)
Object type
Payload
Rocket body
Debris
Shape & HBR
Box + 2 Pan, 17.7 m
Radar Cross Section
36.964 m², Large (>1 m²)

Expand to show TLE details & history
Last TLE update: 16 hours ago

TLE from 16 hours ago
0 STARLINK-34714
1 64939U 25158H   26171.18858145 -.00003523  00000-0 -24029-3 0  9994
2 64939  97.3439  34.0999 0001271 150.6848 209.4451 15.05657704 50623
Epoch: 2026-06-20T04:31Z
TLE epoch observation values (Epoch: 2026-06-20T04:31:33.437Z)
Latitude
-0.00001°
Longitude
57.80379°
Altitude
553.327 km
Speed
7.585 km/s
True Right ascension
02h 16m 23s
True Declination
0° 00' 00"
Sunlit
Object was in daylight at epoch
Visualization orbit readout
Latitude
Unknown
Longitude
Unknown
Altitude
Unknown
Speed
Unknown
Apparent Right ascension
Unknown
Apparent Declination
Unknown
Sunlit
N/A
Visualization observer readout
Local Sidereal Time
07:14:54
Azimuth
Unknown
Elevation
Unknown
Doppler factor
Unknown
Orbital elements
Apogee altitude
547.35 km
Perigee altitude
545.59 km
Semi-major axis
6,924.607 km
Eccentricity
0.00013
Inclination
97.3439°
RAAN
34.0999°
Arg. of periapsis
150.6848°
True anomaly
209.43794°
Mean anomaly
209.4451°
Eccentric anomaly
209.44152°
Mean motion
3.76661 °/min
Orbital period
95.58 mins
BSTAR
-0.00024029
Loading maneuver chart data...
Computing Atmospheric mass density...
Loading historical data...
Loading historical data...
Loading historical data...
Loading historical data...
Loading historical data...
Loading historical data...
Loading historical data...

Documentation

Showing up to 5 results
|